EW2353 Weather Reports


Display with metric or nautical units.
time (UTC)temp
F
wind
direction
speed
MPH
gust
MPH
rain 1hr
in
rain 24hr
in
rain mn
in
humidity
%
barometer
mb
20260831145822 82 243 3.0 5.0 0.00 0.00 0.00 84 1020.3
20260831145315 82 211 2.0 8.0 0.00 0.00 0.00 83 1020.3
20260831144828 82 215 4.0 8.0 0.00 0.00 0.00 83 1020.3
20260831144321 81 179 3.0 5.0 0.00 0.00 0.00 85 1020.2
20260831143813 81 232 2.0 5.0 0.00 0.00 0.00 88 1020.3
20260831143324 80 217 2.0 4.0 0.00 0.00 0.00 88 1020.2
20260831142817 79 219 2.0 5.0 0.00 0.00 0.00 88 1020.1
20260831142314 79 211 3.0 6.0 0.00 0.00 0.00 88 1020.1
20260831141827 78 219 3.0 6.0 0.00 0.00 0.00 90 1019.9
20260831141320 78 209 2.0 4.0 0.00 0.00 0.00 93 1020.0
20260831140812 77 211 2.0 4.0 0.00 0.00 0.00 92 1020.0
20260831140324 77 212 2.0 3.0 0.00 0.00 0.00 92 1020.0
20260831135837 76 215 1.0 3.0 0.00 0.00 0.00 92 1020.0
20260831135329 76 214 1.0 2.0 0.00 0.00 0.00 93 1020.0
20260831134822 76 221 0.0 1.0 0.00 0.00 0.00 94 1020.1
20260831134332 75 221 0.0 2.0 0.00 0.00 0.00 94 1020.2
20260831133844 75 145 0.0 3.0 0.00 0.00 0.00 94 1020.2
20260831133340 75 219 0.0 3.0 0.00 0.00 0.00 94 1020.1
20260831132811 75 213 0.0 1.0 0.00 0.00 0.00 95 1020.1
20260831132344 74 214 0.0 1.0 0.00 0.00 0.00 95 1020.0
20260831131835 74 214 0.0 1.0 0.00 0.00 0.00 95 1020.0
20260831131327 74 214 0.0 1.0 0.00 0.00 0.00 95 1020.1
20260831130840 74 214 0.0 1.0 0.00 0.00 0.00 95 1020.0
20260831130312 74 214 0.0 1.0 0.00 0.00 0.00 95 1019.9
20260831125824 73 214 0.0 1.0 0.00 0.00 0.00 95 1019.9
20260831125338 73 214 0.0 1.0 0.00 0.00 0.00 95 1019.8
20260831124849 73 212 0.0 1.0 0.00 0.00 0.00 96 1019.7
20260831124321 72 217 0.0 1.0 0.00 0.00 0.00 97 1019.7
20260831123817 72 218 0.0 1.0 0.00 0.00 0.00 97 1019.7
20260831123328 71 203 0.0 0.0 0.00 0.00 0.00 97 1019.7
20260831122820 71 198 0.0 0.0 0.00 0.00 0.00 97 1019.7
20260831122314 71 198 0.0 0.0 0.00 0.00 0.00 97 1019.7
20260831121826 70 198 0.0 0.0 0.00 0.00 0.00 97 1019.7
20260831121319 70 198 0.0 0.0 0.00 0.00 0.00 97 1019.7
20260831120812 70 198 0.0 0.0 0.00 0.00 0.00 97 1019.6
20260831120325 69 198 0.0 0.0 0.00 0.00 0.00 97 1019.6
20260831115822 69 198 0.0 0.0 0.00 0.00 0.00 97 1019.6
20260831115315 69 198 0.0 0.0 0.00 0.00 0.00 97 1019.5
20260831114827 69 198 0.0 0.0 0.00 0.00 0.00 97 1019.5
20260831114320 69 198 0.0 0.0 0.00 0.00 0.00 97 1019.6
20260831113812 68 198 0.0 0.0 0.00 0.00 0.00 97 1019.6
20260831113325 68 198 0.0 0.0 0.00 0.00 0.00 97 1019.6
20260831112817 68 198 0.0 0.0 0.00 0.00 0.00 97 1019.5
20260831112310 68 198 0.0 0.0 0.00 0.00 0.00 97 1019.5
20260831111826 68 198 0.0 0.0 0.00 0.00 0.00 97 1019.5
20260831111319 68 198 0.0 0.0 0.00 0.00 0.00 97 1019.4
20260831110812 68 198 0.0 0.0 0.00 0.00 0.00 97 1019.3
20260831110325 68 198 0.0 0.0 0.00 0.00 0.00 97 1019.3
20260831105815 68 198 0.0 0.0 0.00 0.00 0.00 97 1019.2
20260831105328 68 198 0.0 0.0 0.00 0.00 0.00 97 1019.1
20260831104821 68 198 0.0 0.0 0.00 0.00 0.00 97 1019.0
20260831104313 68 198 0.0 0.0 0.00 0.00 0.00 97 1019.0
20260831103810 69 198 0.0 0.0 0.00 0.00 0.00 97 1019.0
20260831103322 69 198 0.0 0.0 0.00 0.00 0.00 97 1019.0
20260831102815 69 198 0.0 0.0 0.00 0.00 0.00 97 1019.0
20260831102328 69 198 0.0 0.0 0.00 0.00 0.00 96 1019.0
20260831101821 69 198 0.0 0.0 0.00 0.00 0.00 96 1018.9
20260831101314 69 198 0.0 0.0 0.00 0.00 0.00 96 1018.8
20260831100826 69 198 0.0 0.0 0.00 0.00 0.00 96 1018.9
20260831100320 70 198 0.0 0.0 0.00 0.00 0.00 96 1018.8
20260831095816 70 198 0.0 0.0 0.00 0.00 0.00 96 1018.9
20260831095309 70 198 0.0 0.0 0.00 0.00 0.00 96 1018.8
20260831094822 70 198 0.0 0.0 0.00 0.00 0.00 96 1018.9
20260831094335 70 198 0.0 0.0 0.00 0.00 0.00 97 1018.8
20260831093826 70 198 0.0 0.0 0.00 0.00 0.00 97 1018.8
20260831093318 70 198 0.0 0.0 0.00 0.00 0.00 97 1018.9
20260831092811 70 198 0.0 0.0 0.00 0.00 0.00 97 1018.8
20260831092324 70 198 0.0 0.0 0.00 0.00 0.00 97 1018.8
20260831091820 70 198 0.0 0.0 0.00 0.00 0.00 97 1018.8
20260831091313 70 198 0.0 0.0 0.00 0.00 0.00 96 1018.7
20260831090826 70 198 0.0 0.0 0.00 0.00 0.00 96 1018.7
20260831090319 70 198 0.0 0.0 0.00 0.00 0.00 96 1018.7
20260831085812 70 198 0.0 0.0 0.00 0.00 0.00 96 1018.8
20260831085324 70 198 0.0 0.0 0.00 0.00 0.00 96 1018.8
20260831084817 70 198 0.0 0.0 0.00 0.00 0.00 96 1018.8
20260831084331 70 198 0.0 0.0 0.00 0.00 0.00 96 1018.7
20260831083822 70 198 0.0 0.0 0.00 0.00 0.00 96 1018.7
20260831083318 70 198 0.0 0.0 0.00 0.00 0.00 96 1018.6
20260831082811 70 198 0.0 0.0 0.00 0.00 0.00 96 1018.6
20260831082324 70 198 0.0 0.0 0.00 0.00 0.00 96 1018.5
20260831081816 70 198 0.0 0.0 0.00 0.00 0.00 96 1018.5
20260831081350 70 198 0.0 0.0 0.00 0.00 0.00 96 1018.4
20260831080821 70 198 0.0 0.0 0.00 0.00 0.00 96 1018.3
20260831080314 70 198 0.0 0.0 0.00 0.00 0.00 96 1018.1
20260831075825 70 198 0.0 0.0 0.00 0.00 0.00 96 1018.1
20260831075323 70 198 0.0 0.0 0.00 0.00 0.00 96 1018.0
20260831074836 70 198 0.0 0.0 0.00 0.00 0.00 96 1017.9
20260831074327 70 198 0.0 0.0 0.00 0.00 0.00 96 1018.0
20260831073820 69 198 0.0 0.0 0.00 0.00 0.00 95 1018.0
20260831073313 69 198 0.0 0.0 0.00 0.00 0.00 95 1018.1
20260831072826 69 198 0.0 0.0 0.00 0.00 0.00 95 1018.3
20260831072318 69 198 0.0 0.0 0.00 0.00 0.00 94 1018.3
20260831071811 70 198 0.0 0.0 0.00 0.00 0.00 94 1018.4
20260831071324 70 198 0.0 0.0 0.00 0.00 0.00 94 1018.4
20260831070820 70 198 0.0 0.0 0.00 0.00 0.00 95 1018.4
20260831070312 70 198 0.0 0.0 0.00 0.00 0.00 95 1018.3
20260831065825 70 198 0.0 0.0 0.00 0.00 0.00 95 1018.5
20260831065318 70 198 0.0 0.0 0.00 0.00 0.00 96 1018.5
20260831064811 70 198 0.0 0.0 0.00 0.00 0.00 96 1018.7
20260831064324 70 198 0.0 0.0 0.00 0.00 0.00 96 1018.8
20260831063816 70 198 0.0 0.0 0.00 0.00 0.00 96 1018.7
20260831063313 70 198 0.0 0.0 0.00 0.00 0.00 96 1018.8
20260831062826 70 198 0.0 0.0 0.00 0.00 0.00 96 1018.9
20260831062319 70 198 0.0 0.0 0.00 0.00 0.00 96 1019.1
20260831061831 70 198 0.0 0.0 0.00 0.00 0.00 96 1019.1
20260831061323 70 198 0.0 0.0 0.00 0.00 0.00 96 1019.0
20260831060836 70 198 0.0 0.0 0.00 0.00 0.00 96 1019.0
20260831060327 70 198 0.0 0.0 0.00 0.00 0.00 96 1019.1
20260831055840 70 198 0.0 0.0 0.00 0.00 0.00 96 1019.1
20260831055312 69 198 0.0 0.0 0.00 0.00 0.00 96 1019.2
20260831054825 69 198 0.0 0.0 0.00 0.00 0.00 96 1019.2
20260831054322 69 198 0.0 0.0 0.00 0.00 0.00 96 1019.2
20260831053835 69 198 0.0 0.0 0.00 0.00 0.00 96 1019.2
20260831053326 69 198 0.0 0.0 0.00 0.00 0.00 96 1019.2
20260831052840 69 198 0.0 0.0 0.00 0.00 0.00 96 1019.2
20260831052311 69 198 0.0 0.0 0.00 0.00 0.00 96 1019.2
20260831051824 68 198 0.0 0.0 0.00 0.00 0.00 96 1019.2
20260831051317 68 198 0.0 0.0 0.00 0.00 0.00 96 1019.3
20260831050810 68 198 0.0 0.0 0.00 0.00 0.00 96 1019.2
20260831050323 68 198 0.0 0.0 0.00 0.00 0.00 96 1019.1
20260831045819 68 198 0.0 0.0 0.00 0.00 0.00 96 1019.1
20260831045312 68 198 0.0 0.0 0.00 0.00 0.00 96 1019.1
20260831044844 68 198 0.0 0.0 0.00 0.00 0.00 95 1019.1
20260831044336 68 198 0.0 0.0 0.00 0.00 0.00 95 1019.1
20260831043828 68 198 0.0 0.0 0.00 0.00 0.00 95 1019.0
20260831043341 69 198 0.0 0.0 0.00 0.00 0.00 95 1019.1
20260831042813 69 198 0.0 0.0 0.00 0.00 0.00 95 1019.1
20260831042325 69 198 0.0 0.0 0.00 0.00 0.00 95 1019.2
20260831041818 69 198 0.0 0.0 0.00 0.00 0.00 95 1019.2
20260831041311 69 198 0.0 0.0 0.00 0.00 0.00 95 1019.2
20260831040828 69 198 0.0 0.0 0.00 0.00 0.00 96 1019.3
20260831040321 69 198 0.0 0.0 0.00 0.00 0.00 96 1019.2
20260831035813 69 198 0.0 0.0 0.00 0.00 0.00 96 1019.2
20260831035327 69 198 0.0 0.0 0.00 0.00 0.00 96 1019.2
20260831034819 69 198 0.0 0.0 0.00 0.00 0.00 96 1019.2
20260831034313 69 198 0.0 0.0 0.00 0.00 0.00 95 1019.2
20260831033824 69 198 0.0 0.0 0.00 0.00 0.00 95 1019.2
20260831033317 69 198 0.0 0.0 0.00 0.00 0.00 95 1019.2
20260831032814 69 198 0.0 0.0 0.00 0.00 0.00 95 1019.2
20260831032327 69 198 0.0 0.0 0.00 0.00 0.00 95 1019.3
20260831031819 69 198 0.0 0.0 0.00 0.00 0.00 95 1019.3
20260831031313 69 198 0.0 0.0 0.00 0.00 0.00 95 1019.2
20260831030825 69 198 0.0 0.0 0.00 0.00 0.00 95 1019.3
20260831030338 69 198 0.0 0.0 0.00 0.00 0.00 95 1019.3
20260831025810 70 198 0.0 0.0 0.00 0.00 0.00 95 1019.3
20260831025323 70 198 0.0 0.0 0.00 0.00 0.00 95 1019.3
20260831024819 70 198 0.0 0.0 0.00 0.00 0.00 95 1019.3
20260831024313 70 198 0.0 0.0 0.00 0.00 0.00 95 1019.3
20260831023826 70 198 0.0 0.0 0.00 0.00 0.00 95 1019.3
20260831023318 70 198 0.0 0.0 0.00 0.00 0.00 95 1019.2
20260831022812 70 198 0.0 0.0 0.00 0.00 0.00 95 1019.2
20260831022344 70 198 0.0 0.0 0.00 0.00 0.00 95 1019.3
20260831021816 71 198 0.0 0.0 0.00 0.00 0.00 95 1019.1
20260831021329 71 198 0.0 0.0 0.00 0.00 0.00 95 1019.2
20260831020821 71 198 0.0 0.0 0.00 0.00 0.00 95 1019.2
20260831020319 71 198 0.0 0.0 0.00 0.00 0.00 95 1019.2
20260831015811 71 198 0.0 0.0 0.00 0.00 0.00 95 1019.1
20260831015344 71 198 0.0 0.0 0.00 0.00 0.00 95 1019.1
20260831014835 71 198 0.0 0.0 0.00 0.00 0.00 94 1019.1
20260831014327 71 198 0.0 0.0 0.00 0.00 0.00 94 1019.0
20260831013820 72 198 0.0 0.0 0.00 0.00 0.00 95 1019.0
20260831013312 72 198 0.0 0.0 0.00 0.00 0.00 94 1019.0
20260831012824 72 198 0.0 0.0 0.00 0.00 0.00 94 1018.9
20260831012317 72 198 0.0 0.0 0.00 0.00 0.00 94 1018.8
20260831011814 72 198 0.0 0.0 0.00 0.00 0.00 93 1018.8
20260831011327 72 198 0.0 0.0 0.00 0.00 0.00 93 1018.8
20260831010820 73 198 0.0 0.0 0.00 0.00 0.00 93 1018.9
20260831010333 73 198 0.0 0.0 0.00 0.00 0.00 93 1019.0
20260831005845 73 198 0.0 0.0 0.00 0.00 0.00 92 1019.0
20260831005316 73 198 0.0 0.0 0.00 0.00 0.00 92 1018.8
20260831004809 74 198 0.0 0.0 0.00 0.00 0.00 91 1018.7
20260831004322 74 198 0.0 0.0 0.00 0.00 0.00 91 1018.6
20260831003814 74 198 0.0 0.0 0.00 0.00 0.00 90 1018.6
20260831003331 75 198 0.0 0.0 0.00 0.00 0.00 89 1018.5
20260831002823 75 198 0.0 0.0 0.00 0.00 0.00 89 1018.5
20260831002315 76 198 0.0 0.0 0.00 0.00 0.00 88 1018.4
20260831001827 76 198 0.0 0.0 0.00 0.00 0.00 88 1018.5
20260831001321 77 198 0.0 0.0 0.00 0.00 0.00 88 1018.4
20260831000813 77 198 0.0 0.0 0.00 0.00 0.00 87 1018.5
20260831000326 78 198 0.0 0.0 0.00 0.00 0.00 85 1018.4
20260830235818 79 198 0.0 0.0 0.00 0.00 0.00 84 1018.5
20260830235315 79 198 0.0 0.0 0.00 0.00 0.00 84 1018.5
20260830234827 80 198 0.0 0.0 0.00 0.00 0.00 83 1018.5
20260830234321 81 198 0.0 0.0 0.00 0.00 0.00 81 1018.4
20260830233813 81 198 0.0 0.0 0.00 0.00 0.00 80 1018.3
20260830233325 82 198 0.0 0.0 0.00 0.00 0.00 78 1018.3
20260830232818 83 198 0.0 0.0 0.00 0.00 0.00 77 1018.3
20260830232311 84 198 0.0 0.0 0.00 0.00 0.00 76 1018.4
20260830231824 84 198 0.0 0.0 0.00 0.00 0.00 72 1018.3
20260830231320 85 198 0.0 0.0 0.00 0.00 0.00 71 1018.3
20260830230814 86 198 0.0 0.0 0.00 0.00 0.00 70 1018.3
20260830230346 86 198 0.0 0.0 0.00 0.00 0.00 69 1018.2
20260830225818 85 198 0.0 0.0 0.00 0.00 0.00 70 1018.0
20260830225332 86 198 0.0 1.0 0.00 0.00 0.00 66 1018.0
20260830224823 86 207 0.0 1.0 0.00 0.00 0.00 69 1018.0
20260830224316 85 207 0.0 1.0 0.00 0.00 0.00 70 1017.9
20260830223849 85 207 0.0 1.0 0.00 0.00 0.00 69 1017.9
20260830223321 84 207 0.0 3.0 0.00 0.00 0.00 69 1017.9
20260830222813 84 226 0.0 4.0 0.00 0.00 0.00 67 1017.9
20260830222310 85 219 0.0 4.0 0.00 0.00 0.00 67 1017.9
20260830221823 85 215 0.0 4.0 0.00 0.00 0.00 67 1018.0
20260830221315 86 219 1.0 4.0 0.00 0.00 0.00 65 1018.1
20260830220828 86 215 0.0 4.0 0.00 0.00 0.00 64 1018.2
20260830220321 85 218 1.0 4.0 0.00 0.00 0.00 63 1018.2
20260830215813 85 208 1.0 5.0 0.00 0.00 0.00 66 1018.1
20260830215326 84 195 2.0 5.0 0.00 0.00 0.00 66 1018.0
20260830214840 84 182 1.0 4.0 0.00 0.00 0.00 66 1018.0
20260830214331 84 215 1.0 4.0 0.00 0.00 0.00 66 1018.0
20260830213827 84 207 2.0 4.0 0.00 0.00 0.00 66 1018.0
20260830213320 84 210 1.0 5.0 0.00 0.00 0.00 66 1018.2
20260830212812 85 244 0.0 6.0 0.00 0.00 0.00 64 1018.3
20260830212346 85 223 0.0 6.0 0.00 0.00 0.00 63 1018.2
20260830211817 86 238 1.0 5.0 0.00 0.00 0.00 63 1018.2
20260830211310 86 238 1.0 5.0 0.00 0.00 0.00 64 1018.2
20260830210823 86 225 0.0 6.0 0.00 0.00 0.00 64 1018.3
20260830210316 87 269 1.0 6.0 0.00 0.00 0.00 62 1018.3
20260830205810 87 215 1.0 4.0 0.00 0.00 0.00 59 1018.4
20260830205322 88 212 1.0 4.0 0.00 0.00 0.00 60 1018.4
20260830204836 88 253 1.0 5.0 0.00 0.00 0.00 58 1018.4
20260830204328 88 262 1.0 5.0 0.00 0.00 0.00 60 1018.4
20260830203820 88 239 1.0 4.0 0.00 0.00 0.00 59 1018.5
20260830203313 89 273 0.0 4.0 0.00 0.00 0.00 58 1018.7
20260830202846 89 268 0.0 2.0 0.00 0.00 0.00 57 1018.7
20260830202318 89 208 0.0 2.0 0.00 0.00 0.00 55 1018.9
20260830201810 88 254 0.0 2.0 0.00 0.00 0.00 57 1019.1
20260830201323 88 274 0.0 1.0 0.00 0.00 0.00 59 1019.1
20260830200821 87 243 0.0 1.0 0.00 0.00 0.00 57 1019.2
20260830200313 88 38 0.0 1.0 0.00 0.00 0.00 56 1019.3
20260830195845 88 234 0.0 1.0 0.00 0.00 0.00 58 1019.4
20260830195317 87 241 0.0 1.0 0.00 0.00 0.00 55 1019.4
20260830194809 87 265 0.0 0.0 0.00 0.00 0.00 58 1019.6
20260830194322 87 265 0.0 1.0 0.00 0.00 0.00 57 1019.6
20260830193815 87 275 0.0 1.0 0.00 0.00 0.00 55 1019.7
20260830193328 87 200 0.0 2.0 0.00 0.00 0.00 58 1019.8
20260830192825 87 200 0.0 2.0 0.00 0.00 0.00 55 1019.9
20260830192318 87 276 1.0 2.0 0.00 0.00 0.00 56 1019.9
20260830191831 87 262 0.0 2.0 0.00 0.00 0.00 57 1020.0
20260830191343 88 233 0.0 2.0 0.00 0.00 0.00 56 1020.1
20260830190813 88 143 0.0 3.0 0.00 0.00 0.00 54 1020.2
20260830190326 88 274 1.0 3.0 0.00 0.00 0.00 52 1020.3
20260830185818 89 271 0.0 1.0 0.00 0.00 0.00 53 1020.3
20260830185311 88 281 0.0 3.0 0.00 0.00 0.00 56 1020.5
20260830184844 87 266 0.0 3.0 0.00 0.00 0.00 56 1020.5
20260830184315 88 295 1.0 4.0 0.00 0.00 0.00 55 1020.6
20260830183813 87 276 0.0 5.0 0.00 0.00 0.00 61 1020.7
20260830183324 87 140 0.0 7.0 0.00 0.00 0.00 56 1020.8
20260830182817 87 264 1.0 5.0 0.00 0.00 0.00 56 1020.9
20260830182310 87 268 2.0 6.0 0.00 0.00 0.00 62 1020.9
20260830181822 87 235 3.0 6.0 0.00 0.00 0.00 60 1021.0
20260830181315 87 336 0.0 5.0 0.00 0.00 0.00 61 1021.1
20260830180828 87 278 1.0 7.0 0.00 0.00 0.00 60 1021.1
20260830180320 88 251 1.0 7.0 0.00 0.00 0.00 57 1021.2
20260830175818 88 355 0.0 6.0 0.00 0.00 0.00 62 1021.1
20260830175310 87 281 3.0 6.0 0.00 0.00 0.00 59 1021.2
20260830174824 86 33 1.0 9.0 0.00 0.00 0.00 60 1021.3
20260830174316 86 243 4.0 8.0 0.00 0.00 0.00 62 1021.4
20260830173829 86 284 1.0 9.0 0.00 0.00 0.00 64 1021.4
20260830173321 86 245 5.0 9.0 0.00 0.00 0.00 62 1021.5
20260830172814 86 271 4.0 9.0 0.00 0.00 0.00 63 1021.5
20260830172311 86 255 3.0 5.0 0.00 0.00 0.00 64 1021.6
20260830171843 86 290 1.0 7.0 0.00 0.00 0.00 63 1021.6
20260830171315 86 284 3.0 7.0 0.00 0.00 0.00 66 1021.6
20260830170827 85 262 4.0 8.0 0.00 0.00 0.00 64 1021.6
20260830170320 85 249 4.0 10.0 0.00 0.00 0.00 65 1021.6
20260830165813 85 233 7.0 10.0 0.00 0.00 0.00 63 1021.6
20260830165326 86 244 3.0 8.0 0.00 0.00 0.00 66 1021.6
20260830164838 85 263 2.0 5.0 0.00 0.00 0.00 66 1021.6
20260830164310 85 271 2.0 6.0 0.00 0.00 0.00 69 1021.6
20260830163822 84 257 4.0 6.0 0.00 0.00 0.00 68 1021.5
20260830163318 84 242 2.0 6.0 0.00 0.00 0.00 71 1021.5
20260830162811 84 260 3.0 7.0 0.00 0.00 0.00 69 1021.5
20260830162344 83 244 4.0 7.0 0.00 0.00 0.00 69 1021.5
20260830161816 84 236 4.0 8.0 0.00 0.00 0.00 67 1021.4
20260830161329 84 253 5.0 9.0 0.00 0.00 0.00 67 1021.4
20260830160842 84 259 2.0 7.0 0.00 0.00 0.00 71 1021.3
20260830160312 84 281 2.0 8.0 0.00 0.00 0.00 74 1021.3
20260830155825 84 259 3.0 8.0 0.00 0.00 0.00 70 1021.3
20260830155318 84 225 4.0 8.0 0.00 0.00 0.00 71 1021.2
20260830154815 84 184 2.0 6.0 0.00 0.00 0.00 71 1021.2
20260830154328 83 228 1.0 6.0 0.00 0.00 0.00 73 1021.2
20260830153821 84 198 3.0 6.0 0.00 0.00 0.00 71 1021.1
20260830153313 84 188 3.0 6.0 0.00 0.00 0.00 70 1021.2
20260830152825 83 247 3.0 6.0 0.00 0.00 0.00 75 1021.1
20260830152338 83 181 4.0 6.0 0.00 0.00 0.00 72 1021.1
20260830151809 83 206 1.0 6.0 0.00 0.00 0.00 80 1021.1
20260830151322 82 166 3.0 5.0 0.00 0.00 0.00 76 1021.1
20260830150820 82 222 1.0 7.0 0.00 0.00 0.00 78 1021.0
20260830150312 81 225 3.0 7.0 0.00 0.00 0.00 77 1020.9